Regional Weather Roundup
Issued by NWS

Home | Current Version | Previous Version | Text Only | Print | Product List | Glossary Off
Versions: 1 2 3 4 5 6 7 8 9 10 11 12 13 14 15 16 17 18 19 20 21 22 23 24 25 26 27 28 29 30 31 32 33 34 35 36 37 38 39 40 41 42 43 44 45 46 47 48 49 50

000
ASUS43 KLSX 232057
RWRMO

WEATHER SUMMARY FOR MISSOURI
NATIONAL WEATHER SERVICE SPRINGFIELD MO
400 PM CDT THU MAR 23 2017

NOTE: "FAIR" INDICATES FEW OR NO CLOUDS BELOW 12,000 FEET WITH NO
       SIGNIFICANT WEATHER AND/OR OBSTRUCTIONS TO VISIBILITY.
       CURRENT SKY AND/OR WEATHER CONDITIONS ARE NOT AVAILABLE FOR
       CHILLICOTHE AND FARMINGTON.

MOZ001>031-035>038-043-044-053-054-232200-
...NORTHERN AND WESTERN MISSOURI...

CITY           SKY/WX    TMP DP  RH WIND       PRES   REMARKS
KANSAS CTY INT MOSUNNY   79  51  37 S25G36    29.79F
LEE`S SUMMIT   SUNNY     78  49  35 S24G37    29.83F
ST JOSEPH      SUNNY     80  54  40 S24G32    29.77F
CHILLICOTHE      N/A     77  51  40 S22G32    29.83F

$$
MOZ066>068-077>081-088>096-101>105-232200-
...SOUTHWEST MISSOURI...

CITY           SKY/WX    TMP DP  RH WIND       PRES   REMARKS
SPRINGFIELD    SUNNY     76  51  41 S22G31    29.97F
JOPLIN         SUNNY     79  45  29 S23G30    29.92F
BRANSON        MOSUNNY   77  52  41 SE18      30.03F

$$
MOZ032>034-039>042-045>050-055>058-069>072-232200-
...CENTRAL MISSOURI...

CITY           SKY/WX    TMP DP  RH WIND       PRES   REMARKS
COLUMBIA       NOT AVBL
JEFFERSON CITY SUNNY     79  51  37 S21G28    29.94F
ROLLA          SUNNY     76  50  40 S20       29.99F
SEDALIA        SUNNY     80  49  33 S23G33    29.91F
WARRENSBURG    SUNNY     77  45  31 S18G29    29.87F

$$
MOZ051-052-059>065-232200-
...EAST CENTRAL MISSOURI...

CITY           SKY/WX    TMP DP  RH WIND       PRES   REMARKS
ST LOUIS INTL  MOSUNNY   57  41  55 SE16      30.10F

$$
MOZ072>076-082>087-097>100-106>115-232200-
...SOUTH CENTRAL AND SOUTHEAST MISSOURI...

CITY           SKY/WX    TMP DP  RH WIND       PRES   REMARKS
CAPE GIRARDEAU SUNNY     64  39  39 S12       30.16F
POPLAR BLUFF   SUNNY     65  46  50 SE12G20   30.14F
WEST PLAINS    SUNNY     73  51  46 S15G23    30.08F

$$



USA.gov is the U.S. government's official web portal to all federal, state and local government web resources and services.